Location: Bou Ouachlou
(32.7770°N, 5.6009°W)
Time: 12:15:39
(UTC+00:00)

CZ-4B R/B - Pass Details

Date: 07 June 2020
Orbit: 393 x 463 km, 97.6° (Epoch: 01 July)

Event Time Altitude Azimuth Distance (km) Brightness Sun altitude
Rises 04:41:44 0° 172° (S) 2,278 4.7 -6.7°
Reaches altitude 10° 04:43:41 10° 176° (S) 1,430 3.7 -6.4°
Maximum altitude 04:46:43 66° 259° (W) 438 1.1 -5.8°
Drops below altitude 10° 04:49:48 10° 342° (NNW) 1,463 4.2 -5.3°
Sets 04:51:50 0° 346° (NNW) 2,338 5.3 -4.9°
